Regional Weather Roundup
Issued by NWS State College, PA

Home | Current Version | Previous Version | Graphics & Text | Print | Product List | Glossary On
Versions: 1 2 3 4 5 6 7 8 9 10 11 12 13 14 15 16 17 18 19 20 21 22 23 24 25 26 27 28 29 30 31 32 33 34 35 36 37 38 39 40 41 42 43 44 45 46 47 48 49 50
109
ASUS41 KCTP 251010
RWRCTP

REGIONAL WEATHER ROUNDUP
NATIONAL WEATHER SERVICE STATE COLLEGE PA
600 AM EDT SUN JUN 25 2017

Note: "fair" indicates few or no clouds below 12,000 feet with no
significant weather and/or obstructions to visibility.

* = STATION THAT DOES NOT REPORT PRECIPITATION /E.G. RAIN...SNOW...ETC/
    THUNDER OR FOG.

PAZ002>004-007>009-013>016-020>023-029>032-251100-
WESTERN PENNSYLVANIA

CITY           SKY/WX    TMP DP  RH WIND       PRES   REMARKS
ERIE           PTCLDY    58  53  84 S7        29.98S
MEADVILLE      PTCLDY    56  55  97 SW5       30.02R
FRANKLIN*      CLOUDY    52  48  87 SW6       30.03R VSB 1/4
NEW CASTLE     PTSUNNY   56  56 100 MISG      30.04R
BEAVER COUNTY  NOT AVBL
BUTLER*        MOCLDY    55  54  94 CALM      30.03S
PITTSBURGH INT MOCLDY    60  56  86 W3        30.03R
PITTSBURGH     PTCLDY    62  53  72 W7        30.03R
INDIANA*       MOCLDY    57  57 100 CALM      30.06R
LATROBE        PTCLDY    61  61 100 S6        30.05R
WASHINGTON CO* PTCLDY    57  55  94 CALM      30.07R
$$

PAZ004>006-010>012-017>019-024>028-033>037-041-042-045-046-049>053-251100-
CENTRAL PENNSYLVANIA

CITY           SKY/WX    TMP DP  RH WIND       PRES   REMARKS
BRADFORD       CLEAR     50  49  96 CALM      30.01R
DUBOIS         MOCLDY    54  52  93 SW5       30.02R
CLEARFIELD     FOG       54  54 100 S3        30.03R VSB 1
JOHNSTOWN      PTCLDY    57  54  89 SW5       30.05R
ALTOONA        MOCLDY    59  56  89 SW5       30.04R
STATE COLLEGE  PTCLDY    57  54  88 SW5       30.01R
WILLIAMSPORT   CLEAR     58  56  93 N3        29.97S
SELINSGROVE    PTCLDY    59  59 100 CALM      29.99R
FT INDIANTOWN  CLEAR     57  57 100 CALM      29.98R
CAPITAL CITY   CLEAR     65  58  78 CALM      29.98R
HARRISBURG     PTCLDY    66  61  84 NW7       29.98R
YORK           PTCLDY    62  61  96 CALM      29.99R
$$

PAZ038>040-043-044-047-048-054-055-060>062-067>071-251100-
EASTERN PENNSYLVANIA

CITY           SKY/WX    TMP DP  RH WIND       PRES   REMARKS
SCRANTON       PTCLDY    57  55  93 E3        29.98S
MOUNT POCONO   NOT AVBL
ALLENTOWN      CLEAR     60  57  89 CALM      29.97R
QUAKERTOWN*    SUNNY     59  59 100 CALM      29.99R
READING        CLEAR     64  64 100 CALM      29.97R
LANCASTER      PTCLDY    63  61  93 CALM      29.98R
COATESVILLE    PTSUNNY   64  61  88 CALM      30.00R
POTTSTOWN      CLEAR     61  61 100 CALM      30.00R FOG
BLUE BELL      MOCLDY    61  61 100 CALM      29.99R
DOYLESTOWN     CLEAR     61  59  93 CALM      29.97R
WILLOW GROVE   NOT AVBL
NORTH PHILA    MOCLDY    68  60  75 CALM      29.98R
PHILADELPHIA   PTCLDY    72  61  68 NW5       29.97R
$$




USA.gov is the U.S. government's official web portal to all federal, state and local government web resources and services.